User: anonymous   Login
Location: Unspecified
(0.0000°N, 0.0000°E)
Time: 23:24:35
(UTC+00:00)
Language:

STARLINK-11412 [DTC] - Orbit

View from above orbital plane
View from above orbital plane
View from above satellite
View from above satellite

Ground track
Ground track

The orbit is defined by the following mean orbital elements,

1 63062U          26145.64370035 +.00000000 +00000-0 +15724-2 0 00007
2 63062  42.9986 271.4921 0002581 251.9785 108.0801 15.70980994    06
Epoch (UTC): 25 May 2026 15:26:55
Eccentricity: 0.0002581
inclination: 42.9986°
perigee height: 354 km
apogee height: 358 km
right ascension of ascending node: 271.4921°
argument of perigee: 251.9785°
revolutions per day: 15.70980994
mean anomaly at epoch: 108.0801°

The dashed part of the orbit path shows where the satellite is in the earth's shadow,  

DLR